Tracking 29892 objects as of 21-Nov-2024
HD Live streaming from Space Station
objects crossing your sky now

STARLINK-30514

Track STARLINK-30514 now!
10-day predictions
STARLINK-30514 is classified as:


NORAD ID: 58028
Int'l Code: 2023-156A
Perigee: 469.5 km
Apogee: 471.3 km
Inclination: 53.2 °
Period: 93.9 minutes
Semi major axis: 6841 km
RCS: Unknown
Launch date: October 9, 2023
Source: United States (US)
Launch site: AIR FORCE WESTERN TEST RANGE (AFWTR)
Your satellite tracking list
Your tracking list is empty




NASA's NSSDC Master Catalog

Two Line Element Set (TLE):
1 58028U 23156A   24325.83669137  .00002527  00000-0  86385-4 0  9999
2 58028  53.1585 124.5744 0001332 107.5852 252.5296 15.34214831 63693
Source of the keplerian elements: AFSPC